Time,TemperatureF,DewpointF,PressureIn,WindDirection,WindDirectionDegrees,WindSpeedMPH,WindSpeedGustMPH,Humidity,HourlyPrecipIn,Conditions,Clouds,dailyrainin,SoftwareType,DateUTC
2013-10-12 00:00:00,70.9,66.2,29.86,South,174,0.0,0.0,85,0.00,,,0.00,Wunderground v.1.15,2013-10-12 05:00:00,
2013-10-12 00:03:00,70.9,65.8,29.86,South,174,0.0,0.0,84,0.00,,---,0.00,VWS V14.01,2013-10-12 05:03:00,
2013-10-12 00:08:00,70.9,66.2,29.85,South,174,0.0,0.0,85,0.00,,---,0.00,VWS V14.01,2013-10-12 05:08:00,
2013-10-12 00:10:00,70.8,66.1,29.85,South,174,0.0,0.0,85,0.00,,,0.00,Wunderground v.1.15,2013-10-12 05:10:00,
2013-10-12 00:14:00,70.8,66.1,29.85,South,174,0.0,0.0,85,0.00,,---,0.00,VWS V14.01,2013-10-12 05:14:00,
2013-10-12 00:15:00,70.8,66.1,29.85,South,174,0.0,0.0,85,0.00,,,0.00,Wunderground v.1.15,2013-10-12 05:15:00,
2013-10-12 00:19:00,70.6,65.9,29.85,South,174,0.0,0.0,85,0.00,,---,0.00,VWS V14.01,2013-10-12 05:19:00,
2013-10-12 00:20:00,70.6,65.9,29.85,South,174,0.0,0.0,85,0.00,,,0.00,Wunderground v.1.15,2013-10-12 05:20:00,
2013-10-12 00:25:00,70.6,65.9,29.85,South,177,0.0,0.0,85,0.00,,,0.00,Wunderground v.1.15,2013-10-12 05:25:00,
2013-10-12 00:30:00,70.6,65.9,29.85,South,177,0.0,0.0,85,0.00,,,0.00,Wunderground v.1.15,2013-10-12 05:30:00,
2013-10-12 00:31:00,70.6,65.9,29.85,South,177,0.0,0.0,85,0.00,,---,0.00,VWS V14.01,2013-10-12 05:31:00,
2013-10-12 00:35:00,70.6,65.9,29.85,SE,143,0.0,0.0,85,0.00,,,0.00,Wunderground v.1.15,2013-10-12 05:35:00,
2013-10-12 00:36:00,70.6,65.9,29.85,SE,143,0.0,3.0,85,0.00,,---,0.00,VWS V14.01,2013-10-12 05:36:00,
2013-10-12 00:40:00,70.6,65.9,29.85,SE,143,0.0,0.0,85,0.00,,,0.00,Wunderground v.1.15,2013-10-12 05:40:00,
2013-10-12 00:41:00,70.6,65.9,29.85,SSE,153,0.0,1.0,85,0.00,,---,0.00,VWS V14.01,2013-10-12 05:41:00,
2013-10-12 00:45:00,70.6,65.9,29.85,SSE,153,0.0,0.0,85,0.00,,,0.00,Wunderground v.1.15,2013-10-12 05:45:00,
2013-10-12 00:47:00,70.6,65.9,29.85,SSE,153,0.0,1.0,85,0.00,,---,0.00,VWS V14.01,2013-10-12 05:47:00,
2013-10-12 00:50:00,70.4,65.7,29.85,SSE,153,0.0,0.0,85,0.00,,,0.00,Wunderground v.1.15,2013-10-12 05:50:00,
2013-10-12 00:52:00,70.4,65.7,29.85,SSE,153,0.0,0.0,85,0.00,,---,0.00,VWS V14.01,2013-10-12 05:52:00,
2013-10-12 00:55:00,70.4,65.7,29.85,SSE,153,0.0,0.0,85,0.00,,,0.00,Wunderground v.1.15,2013-10-12 05:55:00,
2013-10-12 00:57:00,70.3,65.6,29.85,SSE,153,0.0,0.0,85,0.00,,---,0.00,VWS V14.01,2013-10-12 05:57:00,
2013-10-12 01:00:00,70.3,65.6,29.85,SSE,153,0.0,0.0,85,0.00,,,0.00,Wunderground v.1.15,2013-10-12 06:00:00,
2013-10-12 01:02:00,70.1,65.4,29.85,SSE,153,0.0,0.0,85,0.00,,---,0.00,VWS V14.01,2013-10-12 06:02:00,
2013-10-12 01:05:00,70.1,65.7,29.85,SSE,153,0.0,0.0,86,0.00,,,0.00,Wunderground v.1.15,2013-10-12 06:05:00,
2013-10-12 01:07:00,69.9,65.5,29.85,SSE,153,0.0,0.0,86,0.00,,---,0.00,VWS V14.01,2013-10-12 06:07:00,
2013-10-12 01:10:00,69.9,65.5,29.85,SSE,153,0.0,0.0,86,0.00,,,0.00,Wunderground v.1.15,2013-10-12 06:10:00,
2013-10-12 01:12:00,69.9,65.5,29.85,SSE,153,0.0,0.0,86,0.00,,---,0.00,VWS V14.01,2013-10-12 06:12:00,
2013-10-12 01:15:00,69.9,65.5,29.85,SSE,153,0.0,0.0,86,0.00,,,0.00,Wunderground v.1.15,2013-10-12 06:15:00,
2013-10-12 01:18:00,69.8,65.4,29.85,SSE,153,0.0,0.0,86,0.00,,---,0.00,VWS V14.01,2013-10-12 06:18:00,
2013-10-12 01:20:00,69.8,65.8,29.85,SSE,153,0.0,0.0,87,0.00,,,0.00,Wunderground v.1.15,2013-10-12 06:20:00,
2013-10-12 01:23:00,69.6,65.6,29.86,SSE,153,0.0,0.0,87,0.00,,---,0.00,VWS V14.01,2013-10-12 06:23:00,
2013-10-12 01:28:00,69.6,65.6,29.86,SSE,153,0.0,0.0,87,0.00,,---,0.00,VWS V14.01,2013-10-12 06:28:00,
2013-10-12 01:30:00,69.4,65.0,29.86,SSE,153,0.0,0.0,86,0.00,,,0.00,Wunderground v.1.15,2013-10-12 06:30:00,
2013-10-12 01:33:00,69.3,64.9,29.86,SSE,153,0.0,0.0,86,0.00,,---,0.00,VWS V14.01,2013-10-12 06:33:00,
2013-10-12 01:35:00,69.3,65.3,29.85,SSE,153,0.0,0.0,87,0.00,,,0.00,Wunderground v.1.15,2013-10-12 06:35:00,
2013-10-12 01:38:00,69.1,65.1,29.86,SSE,153,0.0,0.0,87,0.00,,---,0.00,VWS V14.01,2013-10-12 06:38:00,
2013-10-12 01:40:00,69.1,65.4,29.86,SSE,153,0.0,0.0,88,0.00,,,0.00,Wunderground v.1.15,2013-10-12 06:40:00,
2013-10-12 01:43:00,69.1,65.4,29.86,SSE,153,0.0,0.0,88,0.00,,---,0.00,VWS V14.01,2013-10-12 06:43:00,
2013-10-12 01:45:00,69.1,65.4,29.86,SSE,153,0.0,0.0,88,0.00,,,0.00,Wunderground v.1.15,2013-10-12 06:45:00,
2013-10-12 01:48:00,69.1,65.7,29.86,SSE,153,0.0,0.0,89,0.00,,---,0.00,VWS V14.01,2013-10-12 06:48:00,
2013-10-12 01:50:00,69.1,65.7,29.86,SSE,153,0.0,0.0,89,0.00,,,0.00,Wunderground v.1.15,2013-10-12 06:50:00,
2013-10-12 01:54:00,69.1,65.7,29.86,SSE,153,0.0,0.0,89,0.00,,---,0.00,VWS V14.01,2013-10-12 06:54:00,
2013-10-12 01:55:00,68.9,65.5,29.86,SSE,153,0.0,0.0,89,0.00,,,0.00,Wunderground v.1.15,2013-10-12 06:55:00,
2013-10-12 01:59:00,68.9,65.5,29.86,SSE,153,0.0,0.0,89,0.00,,---,0.00,VWS V14.01,2013-10-12 06:59:00,
2013-10-12 02:00:00,68.9,65.5,29.86,SSE,153,0.0,0.0,89,0.00,,,0.00,Wunderground v.1.15,2013-10-12 07:00:00,
2013-10-12 02:04:00,69.1,65.7,29.86,SSE,153,0.0,0.0,89,0.00,,---,0.00,VWS V14.01,2013-10-12 07:04:00,
2013-10-12 02:05:00,69.1,65.7,29.86,SSE,153,0.0,0.0,89,0.00,,,0.00,Wunderground v.1.15,2013-10-12 07:05:00,
2013-10-12 02:09:00,69.1,65.7,29.86,SSE,153,0.0,0.0,89,0.00,,---,0.00,VWS V14.01,2013-10-12 07:09:00,
2013-10-12 02:10:00,69.1,65.7,29.86,SSE,153,0.0,0.0,89,0.00,,,0.00,Wunderground v.1.15,2013-10-12 07:10:00,
2013-10-12 02:14:00,69.1,65.7,29.86,SSE,153,0.0,0.0,89,0.00,,---,0.00,VWS V14.01,2013-10-12 07:14:00,
2013-10-12 02:15:00,69.1,65.7,29.86,SSE,153,0.0,0.0,89,0.00,,,0.00,Wunderground v.1.15,2013-10-12 07:15:00,
2013-10-12 02:19:00,68.9,65.5,29.86,SSE,153,0.0,0.0,89,0.00,,---,0.00,VWS V14.01,2013-10-12 07:19:00,
2013-10-12 02:20:00,68.9,65.5,29.86,SSE,153,0.0,0.0,89,0.00,,,0.00,Wunderground v.1.15,2013-10-12 07:20:00,
2013-10-12 02:25:00,68.9,65.5,29.86,SSE,153,0.0,0.0,89,0.00,,---,0.00,VWS V14.01,2013-10-12 07:25:00,
2013-10-12 02:30:00,68.9,65.5,29.85,SSE,153,0.0,0.0,89,0.00,,---,0.00,VWS V14.01,2013-10-12 07:30:00,
2013-10-12 02:35:00,68.9,65.5,29.85,SSE,153,0.0,0.0,89,0.00,,---,0.00,VWS V14.01,2013-10-12 07:35:00,
2013-10-12 02:40:00,68.8,65.4,29.85,SSE,153,0.0,0.0,89,0.00,,---,0.00,VWS V14.01,2013-10-12 07:40:00,
2013-10-12 02:45:00,68.8,65.4,29.85,SSE,153,1.0,2.0,89,0.00,,---,0.00,VWS V14.01,2013-10-12 07:45:00,
2013-10-12 02:50:00,69.3,65.9,29.85,SSE,153,1.0,1.0,89,0.00,,,0.00,Wunderground v.1.15,2013-10-12 07:50:00,
2013-10-12 02:55:00,69.4,66.0,29.85,SSE,153,1.0,1.0,89,0.00,,,0.00,Wunderground v.1.15,2013-10-12 07:55:00,
2013-10-12 03:00:00,69.6,66.2,29.85,SSE,153,0.0,1.0,89,0.00,,---,0.00,VWS V14.01,2013-10-12 08:00:00,
2013-10-12 03:05:00,69.6,66.2,29.85,SSE,153,0.0,1.0,89,0.00,,,0.00,Wunderground v.1.15,2013-10-12 08:05:00,
2013-10-12 03:10:00,69.8,66.1,29.85,SSE,153,0.0,3.0,88,0.00,,,0.00,Wunderground v.1.15,2013-10-12 08:10:00,
2013-10-12 03:15:00,69.9,66.2,29.85,SSE,149,1.0,3.0,88,0.00,,,0.00,Wunderground v.1.15,2013-10-12 08:15:00,
2013-10-12 03:16:00,69.9,66.2,29.85,SSE,149,2.0,3.0,88,0.00,,---,0.00,VWS V14.01,2013-10-12 08:16:00,
2013-10-12 03:20:00,70.1,66.4,29.85,SSE,162,1.0,2.0,88,0.00,,,0.00,Wunderground v.1.15,2013-10-12 08:20:00,
2013-10-12 03:21:00,70.1,66.4,29.85,SSE,162,2.0,2.0,88,0.00,,---,0.00,VWS V14.01,2013-10-12 08:21:00,
2013-10-12 03:25:00,70.1,66.4,29.85,SSE,162,1.0,2.0,88,0.00,,,0.00,Wunderground v.1.15,2013-10-12 08:25:00,
2013-10-12 03:26:00,70.1,66.4,29.85,SSE,162,0.0,2.0,88,0.00,,---,0.00,VWS V14.01,2013-10-12 08:26:00,
2013-10-12 03:31:00,69.9,66.2,29.85,SSE,162,1.0,1.0,88,0.00,,---,0.00,VWS V14.01,2013-10-12 08:31:00,
2013-10-12 03:35:00,69.9,66.2,29.86,South,186,0.0,1.0,88,0.00,,,0.00,Wunderground v.1.15,2013-10-12 08:35:00,
2013-10-12 03:36:00,69.9,66.5,29.86,South,186,0.0,2.0,89,0.00,,---,0.00,VWS V14.01,2013-10-12 08:36:00,
2013-10-12 03:40:00,69.9,66.5,29.86,South,186,0.0,0.0,89,0.00,,,0.00,Wunderground v.1.15,2013-10-12 08:40:00,
2013-10-12 03:41:00,69.9,66.5,29.86,South,186,0.0,0.0,89,0.00,,---,0.00,VWS V14.01,2013-10-12 08:41:00,
2013-10-12 03:45:00,69.9,66.5,29.86,South,186,0.0,0.0,89,0.00,,,0.00,Wunderground v.1.15,2013-10-12 08:45:00,
2013-10-12 03:46:00,69.9,66.5,29.86,South,186,0.0,0.0,89,0.00,,---,0.00,VWS V14.01,2013-10-12 08:46:00,
2013-10-12 03:50:00,69.8,66.4,29.86,South,186,0.0,0.0,89,0.00,,,0.00,Wunderground v.1.15,2013-10-12 08:50:00,
2013-10-12 03:52:00,69.8,66.4,29.86,South,186,0.0,0.0,89,0.00,,---,0.00,VWS V14.01,2013-10-12 08:52:00,
2013-10-12 03:55:00,69.8,66.4,29.86,South,186,0.0,0.0,89,0.00,,,0.00,Wunderground v.1.15,2013-10-12 08:55:00,
2013-10-12 03:57:00,69.8,66.7,29.86,South,186,0.0,2.0,90,0.00,,---,0.00,VWS V14.01,2013-10-12 08:57:00,
2013-10-12 04:00:00,69.8,66.7,29.86,South,186,0.0,1.0,90,0.00,,,0.00,Wunderground v.1.15,2013-10-12 09:00:00,
2013-10-12 04:02:00,69.9,66.8,29.86,South,186,2.0,2.0,90,0.00,,---,0.00,VWS V14.01,2013-10-12 09:02:00,
2013-10-12 04:05:00,69.9,66.8,29.86,South,186,0.0,1.0,90,0.00,,,0.00,Wunderground v.1.15,2013-10-12 09:05:00,
2013-10-12 04:07:00,69.9,66.8,29.86,South,186,0.0,2.0,90,0.00,,---,0.00,VWS V14.01,2013-10-12 09:07:00,
2013-10-12 04:10:00,70.1,67.0,29.85,South,186,0.0,0.0,90,0.00,,,0.00,Wunderground v.1.15,2013-10-12 09:10:00,
2013-10-12 04:12:00,69.9,66.8,29.86,South,186,0.0,0.0,90,0.00,,---,0.00,VWS V14.01,2013-10-12 09:12:00,
2013-10-12 04:15:00,70.1,67.0,29.86,South,186,0.0,0.0,90,0.00,,,0.00,Wunderground v.1.15,2013-10-12 09:15:00,
2013-10-12 04:18:00,70.1,67.0,29.86,South,186,0.0,1.0,90,0.00,,---,0.00,VWS V14.01,2013-10-12 09:18:00,
2013-10-12 04:20:00,69.9,66.8,29.86,South,186,0.0,0.0,90,0.00,,,0.00,Wunderground v.1.15,2013-10-12 09:20:00,
2013-10-12 04:23:00,69.9,66.8,29.86,South,186,0.0,0.0,90,0.00,,---,0.00,VWS V14.01,2013-10-12 09:23:00,
2013-10-12 04:25:00,69.9,66.8,29.86,South,186,0.0,0.0,90,0.00,,,0.00,Wunderground v.1.15,2013-10-12 09:25:00,
2013-10-12 04:28:00,69.9,66.8,29.86,South,186,0.0,1.0,90,0.00,,---,0.00,VWS V14.01,2013-10-12 09:28:00,
2013-10-12 04:30:00,69.9,66.8,29.86,South,186,0.0,0.0,90,0.00,,,0.00,Wunderground v.1.15,2013-10-12 09:30:00,
2013-10-12 04:33:00,69.9,67.2,29.86,South,186,0.0,0.0,91,0.00,,---,0.00,VWS V14.01,2013-10-12 09:33:00,
2013-10-12 04:35:00,69.8,67.1,29.86,South,186,0.0,1.0,91,0.00,,,0.00,Wunderground v.1.15,2013-10-12 09:35:00,
2013-10-12 04:38:00,69.8,67.1,29.86,South,186,0.0,2.0,91,0.00,,---,0.00,VWS V14.01,2013-10-12 09:38:00,
2013-10-12 04:40:00,69.8,67.1,29.86,South,186,0.0,0.0,91,0.00,,,0.00,Wunderground v.1.15,2013-10-12 09:40:00,
2013-10-12 04:43:00,69.6,66.9,29.85,South,186,1.0,2.0,91,0.00,,---,0.00,VWS V14.01,2013-10-12 09:43:00,
2013-10-12 04:45:00,69.6,66.9,29.86,South,186,0.0,1.0,91,0.00,,,0.00,Wunderground v.1.15,2013-10-12 09:45:00,
2013-10-12 04:49:00,69.6,67.2,29.86,South,186,0.0,2.0,92,0.00,,---,0.00,VWS V14.01,2013-10-12 09:49:00,
2013-10-12 04:50:00,69.6,67.2,29.86,South,186,1.0,1.0,92,0.00,,,0.00,Wunderground v.1.15,2013-10-12 09:50:00,
2013-10-12 04:54:00,69.6,67.2,29.86,South,186,0.0,2.0,92,0.00,,---,0.00,VWS V14.01,2013-10-12 09:54:00,
2013-10-12 04:55:00,69.6,67.2,29.86,South,186,1.0,1.0,92,0.00,,,0.00,Wunderground v.1.15,2013-10-12 09:55:00,
2013-10-12 04:59:00,69.4,67.0,29.86,South,186,1.0,2.0,92,0.00,,---,0.00,VWS V14.01,2013-10-12 09:59:00,
2013-10-12 05:00:00,69.4,67.0,29.86,South,186,0.0,0.0,92,0.00,,,0.00,Wunderground v.1.15,2013-10-12 10:00:00,
2013-10-12 05:04:00,69.4,67.0,29.86,South,186,0.0,0.0,92,0.00,,---,0.00,VWS V14.01,2013-10-12 10:04:00,
2013-10-12 05:05:00,69.4,67.0,29.86,South,186,0.0,1.0,92,0.00,,,0.00,Wunderground v.1.15,2013-10-12 10:05:00,
2013-10-12 05:09:00,69.4,67.0,29.86,South,186,0.0,2.0,92,0.00,,---,0.00,VWS V14.01,2013-10-12 10:09:00,
2013-10-12 05:10:00,69.4,67.0,29.86,South,186,0.0,0.0,92,0.00,,,0.00,Wunderground v.1.15,2013-10-12 10:10:00,
2013-10-12 05:14:00,69.4,67.0,29.86,South,186,2.0,2.0,92,0.00,,---,0.00,VWS V14.01,2013-10-12 10:14:00,
2013-10-12 05:15:00,69.4,67.0,29.86,South,186,1.0,1.0,92,0.00,,,0.00,Wunderground v.1.15,2013-10-12 10:15:00,
2013-10-12 05:19:00,69.4,67.0,29.86,South,171,0.0,3.0,92,0.00,,---,0.00,VWS V14.01,2013-10-12 10:19:00,
2013-10-12 05:20:00,69.4,67.0,29.86,South,171,1.0,1.0,92,0.00,,,0.00,Wunderground v.1.15,2013-10-12 10:20:00,
2013-10-12 05:25:00,69.4,67.0,29.87,South,173,0.0,2.0,92,0.00,,---,0.00,VWS V14.01,2013-10-12 10:25:00,
2013-10-12 05:30:00,69.4,67.0,29.87,South,173,0.0,0.0,92,0.00,,,0.00,Wunderground v.1.15,2013-10-12 10:30:00,
2013-10-12 05:35:00,69.4,67.3,29.87,South,173,0.0,0.0,93,0.00,,,0.00,Wunderground v.1.15,2013-10-12 10:35:00,
2013-10-12 05:40:00,69.4,67.3,29.87,South,173,0.0,0.0,93,0.00,,,0.00,Wunderground v.1.15,2013-10-12 10:40:00,
2013-10-12 05:41:00,69.4,67.3,29.87,South,173,0.0,1.0,93,0.00,,---,0.00,VWS V14.01,2013-10-12 10:41:00,
2013-10-12 05:45:00,69.4,67.3,29.87,South,173,0.0,2.0,93,0.00,,,0.00,Wunderground v.1.15,2013-10-12 10:45:00,
2013-10-12 05:46:00,69.4,67.3,29.87,South,173,0.0,2.0,93,0.00,,---,0.00,VWS V14.01,2013-10-12 10:46:00,
2013-10-12 05:50:00,69.4,67.3,29.87,SSE,167,0.0,1.0,93,0.00,,,0.00,Wunderground v.1.15,2013-10-12 10:50:00,
2013-10-12 05:51:00,69.6,67.5,29.87,SSE,167,0.0,1.0,93,0.00,,---,0.00,VWS V14.01,2013-10-12 10:51:00,
2013-10-12 05:55:00,69.6,67.5,29.87,SSE,167,1.0,1.0,93,0.00,,,0.00,Wunderground v.1.15,2013-10-12 10:55:00,
2013-10-12 05:57:00,69.6,67.5,29.87,SSE,167,1.0,2.0,93,0.00,,---,0.00,VWS V14.01,2013-10-12 10:57:00,
2013-10-12 06:00:00,69.6,67.5,29.87,SSE,166,1.0,1.0,93,0.00,,,0.00,Wunderground v.1.15,2013-10-12 11:00:00,
2013-10-12 06:02:00,69.6,67.5,29.88,SSE,166,0.0,0.0,93,0.00,,---,0.00,VWS V14.01,2013-10-12 11:02:00,
2013-10-12 06:05:00,69.6,67.5,29.88,SSE,166,0.0,1.0,93,0.00,,,0.00,Wunderground v.1.15,2013-10-12 11:05:00,
2013-10-12 06:07:00,69.6,67.5,29.88,SSE,166,0.0,0.0,93,0.00,,---,0.00,VWS V14.01,2013-10-12 11:07:00,
2013-10-12 06:10:00,69.6,67.5,29.88,SSE,166,0.0,0.0,93,0.00,,,0.00,Wunderground v.1.15,2013-10-12 11:10:00,
2013-10-12 06:12:00,69.6,67.5,29.88,SSE,166,0.0,1.0,93,0.00,,---,0.00,VWS V14.01,2013-10-12 11:12:00,
2013-10-12 06:15:00,69.4,67.3,29.88,SSE,166,0.0,0.0,93,0.00,,,0.00,Wunderground v.1.15,2013-10-12 11:15:00,
2013-10-12 06:17:00,69.4,67.3,29.88,SSE,166,0.0,2.0,93,0.00,,---,0.00,VWS V14.01,2013-10-12 11:17:00,
2013-10-12 06:20:00,69.4,67.3,29.89,SSE,166,0.0,0.0,93,0.00,,,0.00,Wunderground v.1.15,2013-10-12 11:20:00,
2013-10-12 06:22:00,69.4,67.3,29.89,SSE,166,0.0,1.0,93,0.00,,---,0.00,VWS V14.01,2013-10-12 11:22:00,
2013-10-12 06:25:00,69.4,67.6,29.89,SSE,166,0.0,0.0,94,0.00,,,0.00,Wunderground v.1.15,2013-10-12 11:25:00,
2013-10-12 06:27:00,69.3,67.5,29.89,SSE,166,0.0,1.0,94,0.00,,---,0.00,VWS V14.01,2013-10-12 11:27:00,
2013-10-12 06:30:00,69.3,67.5,29.89,SSE,166,0.0,0.0,94,0.00,,,0.00,Wunderground v.1.15,2013-10-12 11:30:00,
2013-10-12 06:33:00,69.3,67.5,29.89,SSE,166,0.0,0.0,94,0.00,,---,0.00,VWS V14.01,2013-10-12 11:33:00,
2013-10-12 06:35:00,69.1,67.3,29.89,SSE,166,0.0,0.0,94,0.00,,,0.00,Wunderground v.1.15,2013-10-12 11:35:00,
2013-10-12 06:38:00,69.1,67.3,29.89,SSE,166,0.0,0.0,94,0.00,,---,0.00,VWS V14.01,2013-10-12 11:38:00,
2013-10-12 06:40:00,68.9,67.1,29.89,SSE,166,0.0,0.0,94,0.00,,,0.00,Wunderground v.1.15,2013-10-12 11:40:00,
2013-10-12 06:43:00,68.8,67.0,29.89,SSE,166,0.0,0.0,94,0.00,,---,0.00,VWS V14.01,2013-10-12 11:43:00,
2013-10-12 06:45:00,68.8,67.0,29.89,SSE,166,0.0,0.0,94,0.00,,,0.00,Wunderground v.1.15,2013-10-12 11:45:00,
2013-10-12 06:49:00,68.6,66.8,29.89,SSE,166,0.0,0.0,94,0.00,,---,0.00,VWS V14.01,2013-10-12 11:49:00,
2013-10-12 06:50:00,68.4,66.6,29.90,SSE,166,0.0,0.0,94,0.00,,,0.00,Wunderground v.1.15,2013-10-12 11:50:00,
2013-10-12 06:54:00,68.3,66.5,29.90,SSE,166,0.0,0.0,94,0.00,,---,0.00,VWS V14.01,2013-10-12 11:54:00,
2013-10-12 06:55:00,68.3,66.5,29.90,SSE,166,0.0,0.0,94,0.00,,,0.00,Wunderground v.1.15,2013-10-12 11:55:00,
2013-10-12 06:59:00,67.9,66.1,29.90,SSE,166,0.0,0.0,94,0.00,,---,0.00,VWS V14.01,2013-10-12 11:59:00,
2013-10-12 07:00:00,67.9,66.1,29.90,SSE,166,0.0,0.0,94,0.00,,,0.00,Wunderground v.1.15,2013-10-12 12:00:00,
2013-10-12 07:04:00,67.8,66.0,29.90,SSE,166,0.0,0.0,94,0.00,,---,0.00,VWS V14.01,2013-10-12 12:04:00,
2013-10-12 07:05:00,67.6,65.8,29.90,SSE,166,0.0,0.0,94,0.00,,,0.00,Wunderground v.1.15,2013-10-12 12:05:00,
2013-10-12 07:09:00,67.4,65.6,29.90,SSE,166,0.0,0.0,94,0.00,,---,0.00,VWS V14.01,2013-10-12 12:09:00,
2013-10-12 07:10:00,67.4,65.6,29.90,SSE,166,0.0,0.0,94,0.00,,,0.00,Wunderground v.1.15,2013-10-12 12:10:00,
2013-10-12 07:14:00,67.3,65.5,29.90,SSE,166,0.0,0.0,94,0.00,,---,0.00,VWS V14.01,2013-10-12 12:14:00,
2013-10-12 07:19:00,66.9,65.1,29.91,SSE,166,0.0,0.0,94,0.00,,---,0.00,VWS V14.01,2013-10-12 12:19:00,
2013-10-12 07:20:00,66.9,65.1,29.91,SSE,166,0.0,0.0,94,0.00,,,0.00,Wunderground v.1.15,2013-10-12 12:20:00,
2013-10-12 07:25:00,66.9,65.1,29.91,SSE,166,0.0,0.0,94,0.00,,,0.00,Wunderground v.1.15,2013-10-12 12:25:00,
2013-10-12 07:30:00,66.9,65.4,29.91,SSE,166,0.0,0.0,95,0.00,,,0.00,Wunderground v.1.15,2013-10-12 12:30:00,
2013-10-12 07:35:00,66.9,65.4,29.92,SSE,166,0.0,0.0,95,0.00,,,0.00,Wunderground v.1.15,2013-10-12 12:35:00,
2013-10-12 07:40:00,67.1,65.6,29.92,SSE,166,0.0,0.0,95,0.00,,,0.00,Wunderground v.1.15,2013-10-12 12:40:00,
2013-10-12 07:45:00,67.3,65.8,29.92,SSE,166,0.0,0.0,95,0.00,,,0.00,Wunderground v.1.15,2013-10-12 12:45:00,
2013-10-12 07:50:00,67.6,66.1,29.92,SSE,166,0.0,0.0,95,0.00,,---,0.00,VWS V14.01,2013-10-12 12:50:00,
2013-10-12 07:55:00,67.8,66.6,29.92,SSE,166,0.0,0.0,96,0.00,,,0.00,Wunderground v.1.15,2013-10-12 12:55:00,
2013-10-12 08:00:00,68.1,66.9,29.92,SSE,166,0.0,0.0,96,0.00,,,0.00,Wunderground v.1.15,2013-10-12 13:00:00,
2013-10-12 08:01:00,68.1,66.9,29.93,SSE,166,0.0,0.0,96,0.00,,---,0.00,VWS V14.01,2013-10-12 13:01:00,
2013-10-12 08:05:00,68.4,67.2,29.93,SSE,166,0.0,0.0,96,0.00,,,0.00,Wunderground v.1.15,2013-10-12 13:05:00,
2013-10-12 08:06:00,68.4,67.2,29.93,SSE,166,0.0,0.0,96,0.00,,---,0.00,VWS V14.01,2013-10-12 13:06:00,
2013-10-12 08:11:00,68.6,67.4,29.93,SSE,166,0.0,0.0,96,0.00,,---,0.00,VWS V14.01,2013-10-12 13:11:00,
2013-10-12 08:15:00,68.8,67.6,29.93,SSE,166,0.0,0.0,96,0.00,,,0.00,Wunderground v.1.15,2013-10-12 13:15:00,
2013-10-12 08:16:00,68.9,67.7,29.93,SSE,166,0.0,0.0,96,0.00,,---,0.00,VWS V14.01,2013-10-12 13:16:00,
2013-10-12 08:20:00,69.1,67.9,29.93,SSE,166,0.0,0.0,96,0.00,,,0.00,Wunderground v.1.15,2013-10-12 13:20:00,
2013-10-12 08:21:00,69.1,67.9,29.93,SSE,166,0.0,0.0,96,0.00,,---,0.00,VWS V14.01,2013-10-12 13:21:00,
2013-10-12 08:25:00,69.3,68.1,29.94,SSE,166,0.0,0.0,96,0.00,,,0.00,Wunderground v.1.15,2013-10-12 13:25:00,
2013-10-12 08:26:00,69.3,68.1,29.94,SSE,166,0.0,0.0,96,0.00,,---,0.00,VWS V14.01,2013-10-12 13:26:00,
2013-10-12 08:30:00,69.3,68.1,29.94,SSE,166,0.0,0.0,96,0.00,,,0.00,Wunderground v.1.15,2013-10-12 13:30:00,
2013-10-12 08:32:00,69.4,68.2,29.94,SSE,166,0.0,0.0,96,0.00,,---,0.00,VWS V14.01,2013-10-12 13:32:00,
2013-10-12 08:35:00,69.4,68.2,29.94,SSE,166,0.0,0.0,96,0.00,,,0.00,Wunderground v.1.15,2013-10-12 13:35:00,
2013-10-12 08:37:00,69.4,68.2,29.94,SSE,166,0.0,0.0,96,0.00,,---,0.00,VWS V14.01,2013-10-12 13:37:00,
2013-10-12 08:40:00,69.4,68.2,29.94,SSE,166,0.0,0.0,96,0.00,,,0.00,Wunderground v.1.15,2013-10-12 13:40:00,
2013-10-12 08:42:00,69.4,68.2,29.94,SSE,166,0.0,0.0,96,0.00,,---,0.00,VWS V14.01,2013-10-12 13:42:00,
2013-10-12 08:45:00,69.4,68.2,29.94,SSE,166,0.0,0.0,96,0.00,,,0.00,Wunderground v.1.15,2013-10-12 13:45:00,
2013-10-12 08:47:00,69.4,68.2,29.94,SSE,166,0.0,0.0,96,0.00,,---,0.00,VWS V14.01,2013-10-12 13:47:00,
2013-10-12 08:50:00,69.4,68.2,29.94,SSE,166,0.0,0.0,96,0.00,,,0.00,Wunderground v.1.15,2013-10-12 13:50:00,
2013-10-12 08:52:00,69.4,68.2,29.94,SSE,166,0.0,0.0,96,0.00,,---,0.00,VWS V14.01,2013-10-12 13:52:00,
2013-10-12 08:55:00,69.6,68.4,29.94,SSE,157,0.0,0.0,96,0.00,,,0.00,Wunderground v.1.15,2013-10-12 13:55:00,
2013-10-12 08:57:00,69.6,68.4,29.94,SSE,157,0.0,1.0,96,0.00,,---,0.00,VWS V14.01,2013-10-12 13:57:00,
2013-10-12 09:00:00,69.4,68.2,29.94,SSE,157,0.0,0.0,96,0.00,,,0.00,Wunderground v.1.15,2013-10-12 14:00:00,
2013-10-12 09:02:00,69.4,68.2,29.94,SSE,157,0.0,0.0,96,0.00,,---,0.00,VWS V14.01,2013-10-12 14:02:00,
2013-10-12 09:05:00,69.6,68.4,29.94,SSE,157,0.0,0.0,96,0.00,,,0.00,Wunderground v.1.15,2013-10-12 14:05:00,
2013-10-12 09:07:00,69.6,68.1,29.94,SSE,157,0.0,0.0,95,0.00,,---,0.00,VWS V14.01,2013-10-12 14:07:00,
2013-10-12 09:10:00,69.6,68.1,29.95,SSE,157,0.0,0.0,95,0.00,,,0.00,Wunderground v.1.15,2013-10-12 14:10:00,
2013-10-12 09:12:00,69.8,68.3,29.95,SSE,157,0.0,0.0,95,0.00,,---,0.00,VWS V14.01,2013-10-12 14:12:00,
2013-10-12 09:15:00,69.8,68.3,29.95,SSE,157,0.0,0.0,95,0.00,,,0.00,Wunderground v.1.15,2013-10-12 14:15:00,
2013-10-12 09:18:00,69.9,68.4,29.95,SSE,157,0.0,0.0,95,0.00,,---,0.00,VWS V14.01,2013-10-12 14:18:00,
2013-10-12 09:20:00,69.9,68.4,29.95,SSE,157,0.0,0.0,95,0.00,,,0.00,Wunderground v.1.15,2013-10-12 14:20:00,
2013-10-12 09:23:00,70.1,68.9,29.95,SSE,157,0.0,0.0,96,0.00,,---,0.00,VWS V14.01,2013-10-12 14:23:00,
2013-10-12 09:25:00,70.1,68.9,29.95,SSE,157,0.0,0.0,96,0.00,,,0.00,Wunderground v.1.15,2013-10-12 14:25:00,
2013-10-12 09:28:00,70.3,68.8,29.95,SSE,157,0.0,0.0,95,0.00,,---,0.00,VWS V14.01,2013-10-12 14:28:00,
2013-10-12 09:30:00,70.3,68.8,29.95,SSE,157,0.0,0.0,95,0.00,,,0.00,Wunderground v.1.15,2013-10-12 14:30:00,
2013-10-12 09:33:00,70.4,68.9,29.95,SSE,157,0.0,0.0,95,0.00,,---,0.00,VWS V14.01,2013-10-12 14:33:00,
2013-10-12 09:35:00,70.4,68.9,29.95,SSE,157,0.0,0.0,95,0.00,,,0.00,Wunderground v.1.15,2013-10-12 14:35:00,
2013-10-12 09:38:00,70.4,68.9,29.95,SSE,157,0.0,0.0,95,0.00,,---,0.00,VWS V14.01,2013-10-12 14:38:00,
2013-10-12 09:40:00,70.6,69.1,29.95,SSE,157,0.0,0.0,95,0.00,,,0.00,Wunderground v.1.15,2013-10-12 14:40:00,
2013-10-12 09:44:00,70.6,69.1,29.96,SSE,157,0.0,0.0,95,0.00,,---,0.00,VWS V14.01,2013-10-12 14:44:00,
2013-10-12 09:45:00,70.6,69.1,29.96,SSE,157,0.0,0.0,95,0.00,,,0.00,Wunderground v.1.15,2013-10-12 14:45:00,
2013-10-12 09:49:00,70.8,69.3,29.96,SSE,157,0.0,0.0,95,0.00,,---,0.00,VWS V14.01,2013-10-12 14:49:00,
2013-10-12 09:50:00,70.8,69.3,29.96,SSE,157,0.0,0.0,95,0.00,,,0.00,Wunderground v.1.15,2013-10-12 14:50:00,
2013-10-12 09:54:00,70.9,69.4,29.96,SSE,157,0.0,0.0,95,0.00,,---,0.00,VWS V14.01,2013-10-12 14:54:00,
2013-10-12 09:59:00,71.1,69.6,29.96,SSE,157,0.0,0.0,95,0.00,,---,0.00,VWS V14.01,2013-10-12 14:59:00,
2013-10-12 10:00:00,71.1,69.6,29.96,SSE,157,0.0,0.0,95,0.00,,,0.00,Wunderground v.1.15,2013-10-12 15:00:00,
2013-10-12 10:04:00,71.3,69.8,29.96,SSE,157,0.0,0.0,95,0.00,,---,0.00,VWS V14.01,2013-10-12 15:04:00,
2013-10-12 10:05:00,71.3,69.8,29.96,SSE,157,0.0,0.0,95,0.00,,,0.00,Wunderground v.1.15,2013-10-12 15:05:00,
2013-10-12 10:09:00,71.5,70.0,29.96,SSE,157,0.0,0.0,95,0.00,,---,0.00,VWS V14.01,2013-10-12 15:09:00,
2013-10-12 10:10:00,71.5,70.0,29.96,SSE,157,0.0,0.0,95,0.00,,,0.00,Wunderground v.1.15,2013-10-12 15:10:00,
2013-10-12 10:15:00,71.5,70.0,29.96,SSE,157,0.0,0.0,95,0.00,,,0.00,Wunderground v.1.15,2013-10-12 15:15:00,
2013-10-12 10:20:00,71.6,70.1,29.96,SSE,157,0.0,0.0,95,0.00,,,0.00,Wunderground v.1.15,2013-10-12 15:20:00,
2013-10-12 10:25:00,71.8,70.3,29.96,SSE,157,0.0,0.0,95,0.00,,,0.00,Wunderground v.1.15,2013-10-12 15:25:00,
2013-10-12 10:30:00,72.0,70.5,29.96,SSE,157,0.0,0.0,95,0.00,,,0.00,Wunderground v.1.15,2013-10-12 15:30:00,
2013-10-12 10:35:00,72.1,70.3,29.96,SSE,157,0.0,0.0,94,0.00,,,0.00,Wunderground v.1.15,2013-10-12 15:35:00,
2013-10-12 10:36:00,72.1,70.3,29.96,SSE,157,0.0,0.0,94,0.00,,---,0.00,VWS V14.01,2013-10-12 15:36:00,
2013-10-12 10:40:00,72.3,70.5,29.96,SSE,157,0.0,0.0,94,0.00,,,0.00,Wunderground v.1.15,2013-10-12 15:40:00,
2013-10-12 10:41:00,72.3,70.5,29.96,SSE,157,0.0,0.0,94,0.00,,---,0.00,VWS V14.01,2013-10-12 15:41:00,
2013-10-12 10:45:00,72.3,70.5,29.96,SSE,157,0.0,0.0,94,0.00,,,0.00,Wunderground v.1.15,2013-10-12 15:45:00,
2013-10-12 10:46:00,72.3,70.5,29.96,SSE,157,0.0,2.0,94,0.00,,---,0.00,VWS V14.01,2013-10-12 15:46:00,
2013-10-12 10:50:00,72.5,70.7,29.96,SSE,157,0.0,0.0,94,0.00,,,0.00,Wunderground v.1.15,2013-10-12 15:50:00,
2013-10-12 10:51:00,72.5,70.7,29.96,SSE,157,0.0,0.0,94,0.00,,---,0.00,VWS V14.01,2013-10-12 15:51:00,
2013-10-12 10:55:00,72.7,70.9,29.96,SSE,157,0.0,0.0,94,0.00,,,0.00,Wunderground v.1.15,2013-10-12 15:55:00,
2013-10-12 10:56:00,72.7,70.9,29.96,SSE,157,1.0,2.0,94,0.00,,---,0.00,VWS V14.01,2013-10-12 15:56:00,
2013-10-12 11:00:00,73.0,71.2,29.96,SSE,157,0.0,0.0,94,0.00,,,0.00,Wunderground v.1.15,2013-10-12 16:00:00,
2013-10-12 11:01:00,73.0,71.2,29.96,SSE,157,0.0,0.0,94,0.00,,---,0.00,VWS V14.01,2013-10-12 16:01:00,
2013-10-12 11:05:00,73.2,71.4,29.96,SSE,157,0.0,1.0,94,0.00,,,0.00,Wunderground v.1.15,2013-10-12 16:05:00,
2013-10-12 11:06:00,73.2,71.4,29.96,SSE,157,0.0,1.0,94,0.00,,---,0.00,VWS V14.01,2013-10-12 16:06:00,
2013-10-12 11:10:00,73.2,71.1,29.96,SSE,157,0.0,0.0,93,0.00,,,0.00,Wunderground v.1.15,2013-10-12 16:10:00,
2013-10-12 11:11:00,73.3,71.2,29.96,SSE,157,0.0,0.0,93,0.00,,---,0.00,VWS V14.01,2013-10-12 16:11:00,
2013-10-12 11:15:00,73.5,71.4,29.96,SSE,157,0.0,0.0,93,0.00,,,0.00,Wunderground v.1.15,2013-10-12 16:15:00,
2013-10-12 11:16:00,73.7,71.6,29.96,SSE,157,0.0,0.0,93,0.00,,---,0.00,VWS V14.01,2013-10-12 16:16:00,
2013-10-12 11:20:00,73.7,71.5,29.96,SSE,157,0.0,0.0,93,0.00,,,0.00,Wunderground v.1.15,2013-10-12 16:20:00,
2013-10-12 11:22:00,73.9,71.4,29.96,SSE,157,0.0,1.0,92,0.00,,---,0.00,VWS V14.01,2013-10-12 16:22:00,
2013-10-12 11:25:00,74.0,71.5,29.96,SSE,157,0.0,0.0,92,0.00,,,0.00,Wunderground v.1.15,2013-10-12 16:25:00,
2013-10-12 11:27:00,74.0,71.5,29.96,SSE,157,0.0,1.0,92,0.00,,---,0.00,VWS V14.01,2013-10-12 16:27:00,
2013-10-12 11:32:00,74.2,71.7,29.96,SSE,157,0.0,0.0,92,0.00,,---,0.00,VWS V14.01,2013-10-12 16:32:00,
2013-10-12 11:35:00,74.4,71.9,29.96,SSE,157,0.0,0.0,92,0.00,,,0.00,Wunderground v.1.15,2013-10-12 16:35:00,
2013-10-12 11:37:00,74.6,72.1,29.96,SSE,157,0.0,1.0,92,0.00,,---,0.00,VWS V14.01,2013-10-12 16:37:00,
2013-10-12 11:40:00,74.7,72.2,29.96,SSE,157,0.0,0.0,92,0.00,,,0.00,Wunderground v.1.15,2013-10-12 16:40:00,
2013-10-12 11:42:00,74.7,71.9,29.96,SSE,157,0.0,0.0,91,0.00,,---,0.00,VWS V14.01,2013-10-12 16:42:00,
2013-10-12 11:45:00,74.9,72.1,29.96,SSE,157,0.0,0.0,91,0.00,,,0.00,Wunderground v.1.15,2013-10-12 16:45:00,
2013-10-12 11:47:00,74.9,72.1,29.96,SSE,157,0.0,0.0,91,0.00,,---,0.00,VWS V14.01,2013-10-12 16:47:00,
2013-10-12 11:50:00,75.1,72.3,29.96,SSE,157,0.0,0.0,91,0.00,,,0.00,Wunderground v.1.15,2013-10-12 16:50:00,
2013-10-12 11:52:00,75.1,72.3,29.96,SSE,157,2.0,2.0,91,0.00,,---,0.00,VWS V14.01,2013-10-12 16:52:00,
2013-10-12 11:55:00,75.1,72.0,29.97,SSE,157,1.0,1.0,90,0.00,,,0.00,Wunderground v.1.15,2013-10-12 16:55:00,
2013-10-12 11:57:00,75.1,72.0,29.97,SSE,157,2.0,2.0,90,0.00,,---,0.00,VWS V14.01,2013-10-12 16:57:00,
2013-10-12 12:00:00,75.3,72.2,29.97,SSE,157,1.0,1.0,90,0.00,,,0.00,Wunderground v.1.15,2013-10-12 17:00:00,
2013-10-12 12:03:00,75.3,72.2,29.97,SSE,157,0.0,2.0,90,0.00,,---,0.00,VWS V14.01,2013-10-12 17:03:00,
2013-10-12 12:05:00,75.3,72.2,29.96,SSE,157,1.0,1.0,90,0.00,,,0.00,Wunderground v.1.15,2013-10-12 17:05:00,
2013-10-12 12:08:00,75.3,72.5,29.96,SSE,157,0.0,2.0,91,0.00,,---,0.00,VWS V14.01,2013-10-12 17:08:00,
2013-10-12 12:10:00,75.4,72.6,29.96,SSE,157,0.0,0.0,91,0.00,,,0.00,Wunderground v.1.15,2013-10-12 17:10:00,
2013-10-12 12:13:00,75.6,72.8,29.96,SSE,159,1.0,3.0,91,0.00,,---,0.00,VWS V14.01,2013-10-12 17:13:00,
2013-10-12 12:15:00,75.6,72.8,29.96,SSE,159,1.0,1.0,91,0.00,,,0.00,Wunderground v.1.15,2013-10-12 17:15:00,
2013-10-12 12:18:00,75.6,72.8,29.96,SSE,159,0.0,3.0,91,0.00,,---,0.00,VWS V14.01,2013-10-12 17:18:00,
2013-10-12 12:20:00,75.8,73.3,29.96,SSE,159,1.0,1.0,92,0.00,,,0.00,Wunderground v.1.15,2013-10-12 17:20:00,
2013-10-12 12:23:00,76.0,73.5,29.96,SSE,159,2.0,2.0,92,0.00,,---,0.00,VWS V14.01,2013-10-12 17:23:00,
2013-10-12 12:25:00,76.0,73.5,29.96,SSE,159,0.0,1.0,92,0.00,,,0.00,Wunderground v.1.15,2013-10-12 17:25:00,
2013-10-12 12:28:00,76.0,73.2,29.96,SSE,159,0.0,3.0,91,0.00,,---,0.00,VWS V14.01,2013-10-12 17:28:00,
2013-10-12 12:30:00,76.1,73.3,29.96,SSE,159,0.0,0.0,91,0.00,,,0.00,Wunderground v.1.15,2013-10-12 17:30:00,
2013-10-12 12:33:00,76.3,73.2,29.95,SSE,155,0.0,2.0,90,0.00,,---,0.00,VWS V14.01,2013-10-12 17:33:00,
2013-10-12 12:35:00,76.5,73.3,29.95,SSE,155,1.0,1.0,90,0.00,,,0.00,Wunderground v.1.15,2013-10-12 17:35:00,
2013-10-12 12:38:00,76.7,73.2,29.95,SE,139,1.0,3.0,89,0.00,,---,0.00,VWS V14.01,2013-10-12 17:38:00,
2013-10-12 12:40:00,76.7,73.2,29.95,SE,139,1.0,2.0,89,0.00,,,0.00,Wunderground v.1.15,2013-10-12 17:40:00,
2013-10-12 12:44:00,77.2,73.7,29.95,SE,139,0.0,2.0,89,0.00,,---,0.00,VWS V14.01,2013-10-12 17:44:00,
2013-10-12 12:45:00,77.4,73.9,29.95,SE,139,1.0,2.0,89,0.00,,,0.00,Wunderground v.1.15,2013-10-12 17:45:00,
2013-10-12 12:49:00,77.6,73.1,29.95,SE,145,0.0,3.0,86,0.00,,---,0.00,VWS V14.01,2013-10-12 17:49:00,
2013-10-12 12:50:00,77.7,73.5,29.95,SE,145,1.0,1.0,87,0.00,,,0.00,Wunderground v.1.15,2013-10-12 17:50:00,
2013-10-12 12:55:00,78.1,73.9,29.95,SE,140,1.0,1.0,87,0.00,,,0.00,Wunderground v.1.15,2013-10-12 17:55:00,
2013-10-12 13:00:00,78.5,73.3,29.95,South,187,1.0,5.0,84,0.00,,,0.00,Wunderground v.1.15,2013-10-12 18:00:00,
2013-10-12 13:05:00,78.8,73.2,29.94,South,188,2.0,5.0,83,0.00,,,0.00,Wunderground v.1.15,2013-10-12 18:05:00,
2013-10-12 13:10:00,79.2,73.6,29.94,South,177,2.0,2.0,83,0.00,,,0.00,Wunderground v.1.15,2013-10-12 18:10:00,
2013-10-12 13:15:00,79.6,72.9,29.94,SSW,195,3.0,5.0,80,0.00,,,0.00,Wunderground v.1.15,2013-10-12 18:15:00,
2013-10-12 13:16:00,79.6,73.3,29.94,South,184,5.0,5.0,81,0.00,,---,0.00,VWS V14.01,2013-10-12 18:16:00,
2013-10-12 13:20:00,79.8,73.1,29.93,South,187,3.0,3.0,80,0.00,,,0.00,Wunderground v.1.15,2013-10-12 18:20:00,
2013-10-12 13:21:00,79.8,73.4,29.93,South,187,0.0,2.0,81,0.00,,---,0.00,VWS V14.01,2013-10-12 18:21:00,
2013-10-12 13:25:00,80.3,72.8,29.93,South,181,2.0,3.0,78,0.00,,,0.00,Wunderground v.1.15,2013-10-12 18:25:00,
2013-10-12 13:26:00,80.3,73.2,29.93,South,181,1.0,6.0,79,0.00,,---,0.00,VWS V14.01,2013-10-12 18:26:00,
2013-10-12 13:30:00,80.5,73.0,29.93,SE,142,2.0,2.0,78,0.00,,,0.00,Wunderground v.1.15,2013-10-12 18:30:00,
2013-10-12 13:32:00,80.5,73.0,29.93,SE,140,0.0,3.0,78,0.00,,---,0.00,VWS V14.01,2013-10-12 18:32:00,
2013-10-12 13:35:00,80.7,73.6,29.93,South,170,2.0,2.0,79,0.00,,,0.00,Wunderground v.1.15,2013-10-12 18:35:00,
2013-10-12 13:37:00,80.7,73.6,29.93,South,180,1.0,5.0,79,0.00,,---,0.00,VWS V14.01,2013-10-12 18:37:00,
2013-10-12 13:40:00,80.7,74.0,29.93,South,181,2.0,3.0,80,0.00,,,0.00,Wunderground v.1.15,2013-10-12 18:40:00,
2013-10-12 13:42:00,80.7,74.0,29.93,SW,215,5.0,5.0,80,0.00,,---,0.00,VWS V14.01,2013-10-12 18:42:00,
2013-10-12 13:45:00,80.5,73.8,29.92,South,186,2.0,3.0,80,0.00,,,0.00,Wunderground v.1.15,2013-10-12 18:45:00,
2013-10-12 13:47:00,80.7,73.2,29.92,SE,139,2.0,5.0,78,0.00,,---,0.00,VWS V14.01,2013-10-12 18:47:00,
2013-10-12 13:50:00,80.7,72.8,29.92,SSW,205,2.0,3.0,77,0.00,,,0.00,Wunderground v.1.15,2013-10-12 18:50:00,
2013-10-12 13:52:00,80.7,72.8,29.92,SSW,205,1.0,3.0,77,0.00,,---,0.00,VWS V14.01,2013-10-12 18:52:00,
2013-10-12 13:55:00,80.9,73.0,29.92,SSW,205,1.0,3.0,77,0.00,,,0.00,Wunderground v.1.15,2013-10-12 18:55:00,
2013-10-12 13:57:00,80.9,73.0,29.92,SSW,204,1.0,3.0,77,0.00,,---,0.00,VWS V14.01,2013-10-12 18:57:00,
2013-10-12 14:00:00,80.9,73.4,29.92,South,183,2.0,2.0,78,0.00,,,0.00,Wunderground v.1.15,2013-10-12 19:00:00,
2013-10-12 14:03:00,80.9,73.8,29.92,South,183,1.0,3.0,79,0.00,,---,0.00,VWS V14.01,2013-10-12 19:03:00,
2013-10-12 14:05:00,80.9,73.8,29.92,South,184,2.0,2.0,79,0.00,,,0.00,Wunderground v.1.15,2013-10-12 19:05:00,
2013-10-12 14:08:00,80.9,73.8,29.92,SSE,164,3.0,5.0,79,0.00,,---,0.00,VWS V14.01,2013-10-12 19:08:00,
2013-10-12 14:10:00,80.7,73.2,29.92,SE,136,2.0,2.0,78,0.00,,,0.00,Wunderground v.1.15,2013-10-12 19:10:00,
2013-10-12 14:13:00,80.7,73.2,29.92,SE,136,1.0,2.0,78,0.00,,---,0.00,VWS V14.01,2013-10-12 19:13:00,
2013-10-12 14:15:00,80.7,73.6,29.92,SE,135,2.0,2.0,79,0.00,,,0.00,Wunderground v.1.15,2013-10-12 19:15:00,
2013-10-12 14:18:00,80.7,73.6,29.92,SE,136,2.0,2.0,79,0.00,,---,0.00,VWS V14.01,2013-10-12 19:18:00,
2013-10-12 14:20:00,80.7,73.6,29.92,SE,136,1.0,2.0,79,0.00,,,0.00,Wunderground v.1.15,2013-10-12 19:20:00,
2013-10-12 14:23:00,80.7,73.2,29.92,SE,136,0.0,3.0,78,0.00,,---,0.00,VWS V14.01,2013-10-12 19:23:00,
2013-10-12 14:25:00,80.9,73.4,29.92,SE,138,1.0,2.0,78,0.00,,,0.00,Wunderground v.1.15,2013-10-12 19:25:00,
2013-10-12 14:28:00,80.9,73.4,29.91,SE,138,0.0,3.0,78,0.00,,---,0.00,VWS V14.01,2013-10-12 19:28:00,
2013-10-12 14:30:00,81.1,72.8,29.91,SE,136,1.0,1.0,76,0.00,,,0.00,Wunderground v.1.15,2013-10-12 19:30:00,
2013-10-12 14:34:00,81.4,73.9,29.91,NNW,330,0.0,3.0,78,0.00,,---,0.00,VWS V14.01,2013-10-12 19:34:00,
2013-10-12 14:35:00,81.4,73.1,29.91,NW,323,1.0,2.0,76,0.00,,,0.00,Wunderground v.1.15,2013-10-12 19:35:00,
2013-10-12 14:38:00,81.4,72.7,29.91,West,275,1.0,5.0,75,0.00,,---,0.00,VWS V14.01,2013-10-12 19:38:00,
2013-10-12 14:40:00,81.4,72.7,29.91,WNW,284,2.0,2.0,75,0.00,,,0.00,Wunderground v.1.15,2013-10-12 19:40:00,
2013-10-12 14:44:00,81.6,72.9,29.90,East,97,3.0,3.0,75,0.00,,---,0.00,VWS V14.01,2013-10-12 19:44:00,
2013-10-12 14:45:00,81.6,72.9,29.90,East,97,2.0,2.0,75,0.00,,,0.00,Wunderground v.1.15,2013-10-12 19:45:00,
2013-10-12 14:49:00,82.2,73.1,29.90,ENE,78,2.0,5.0,74,0.00,,---,0.00,VWS V14.01,2013-10-12 19:49:00,
2013-10-12 14:50:00,82.4,73.3,29.90,ENE,78,2.0,2.0,74,0.00,,,0.00,Wunderground v.1.15,2013-10-12 19:50:00,
2013-10-12 14:55:00,83.0,73.9,29.90,NNE,13,2.0,2.0,74,0.00,,,0.00,Wunderground v.1.15,2013-10-12 19:55:00,
2013-10-12 15:00:00,83.2,72.8,29.90,NNE,12,2.0,3.0,71,0.00,,,0.00,Wunderground v.1.15,2013-10-12 20:00:00,
2013-10-12 15:05:00,83.0,72.6,29.90,NNE,29,3.0,3.0,71,0.00,,,0.00,Wunderground v.1.15,2013-10-12 20:05:00,
2013-10-12 15:10:00,82.2,73.5,29.90,NNE,32,4.0,4.0,75,0.00,,,0.00,Wunderground v.1.15,2013-10-12 20:10:00,
2013-10-12 15:15:00,80.9,73.4,29.90,NNE,19,5.0,5.0,78,0.00,,,0.00,Wunderground v.1.15,2013-10-12 20:15:00,
2013-10-12 15:20:00,80.7,73.6,29.90,North,5,5.0,7.0,79,0.00,,,0.00,Wunderground v.1.15,2013-10-12 20:20:00,
2013-10-12 15:22:00,80.1,73.0,29.90,NE,35,7.0,7.0,79,0.00,,---,0.00,VWS V14.01,2013-10-12 20:22:00,
2013-10-12 15:25:00,79.4,73.4,29.91,North,2,6.0,7.0,82,0.00,,,0.00,Wunderground v.1.15,2013-10-12 20:25:00,
2013-10-12 15:27:00,79.2,73.2,29.90,NE,37,12.0,12.0,82,0.00,,---,0.00,VWS V14.01,2013-10-12 20:27:00,
2013-10-12 15:32:00,78.6,73.0,29.90,NNE,16,5.0,8.0,83,0.00,,---,0.00,VWS V14.01,2013-10-12 20:32:00,
2013-10-12 15:35:00,78.5,73.3,29.90,North,351,6.0,7.0,84,0.00,,,0.00,Wunderground v.1.15,2013-10-12 20:35:00,
2013-10-12 15:37:00,78.3,73.1,29.90,ENE,63,7.0,11.0,84,0.00,,---,0.00,VWS V14.01,2013-10-12 20:37:00,
2013-10-12 15:40:00,78.1,72.9,29.90,NNE,22,5.0,6.0,84,0.00,,,0.00,Wunderground v.1.15,2013-10-12 20:40:00,
2013-10-12 15:42:00,78.1,72.9,29.90,NNE,13,8.0,8.0,84,0.00,,---,0.00,VWS V14.01,2013-10-12 20:42:00,
2013-10-12 15:45:00,77.7,72.5,29.90,ENE,74,7.0,7.0,84,0.00,,,0.00,Wunderground v.1.15,2013-10-12 20:45:00,
2013-10-12 15:47:00,77.2,72.3,29.90,NE,49,7.0,12.0,85,0.00,,---,0.00,VWS V14.01,2013-10-12 20:47:00,
2013-10-12 15:50:00,77.0,72.1,29.90,North,8,7.0,7.0,85,0.00,,,0.00,Wunderground v.1.15,2013-10-12 20:50:00,
2013-10-12 15:52:00,76.8,71.9,29.90,NE,44,3.0,8.0,85,0.00,,---,0.00,VWS V14.01,2013-10-12 20:52:00,
2013-10-12 15:55:00,76.8,72.6,29.90,NNE,20,5.0,7.0,87,0.00,,,0.00,Wunderground v.1.15,2013-10-12 20:55:00,
2013-10-12 15:58:00,76.3,72.2,29.90,NE,49,6.0,8.0,87,0.00,,---,0.00,VWS V14.01,2013-10-12 20:58:00,
2013-10-12 16:00:00,76.1,71.9,29.90,NE,51,5.0,5.0,87,0.00,,,0.00,Wunderground v.1.15,2013-10-12 21:00:00,
2013-10-12 16:03:00,76.1,71.9,29.91,ENE,64,3.0,5.0,87,0.00,,---,0.00,VWS V14.01,2013-10-12 21:03:00,
2013-10-12 16:05:00,76.3,72.1,29.90,ENE,64,5.0,11.0,87,0.00,,,0.00,Wunderground v.1.15,2013-10-12 21:05:00,
2013-10-12 16:08:00,76.3,72.2,29.91,NNW,334,6.0,11.0,87,0.00,,---,0.00,VWS V14.01,2013-10-12 21:08:00,
2013-10-12 16:10:00,76.3,72.1,29.91,NE,42,5.0,5.0,87,0.00,,,0.00,Wunderground v.1.15,2013-10-12 21:10:00,
2013-10-12 16:13:00,76.5,72.0,29.90,NE,40,10.0,10.0,86,0.00,,---,0.00,VWS V14.01,2013-10-12 21:13:00,
2013-10-12 16:18:00,76.1,71.6,29.91,NNE,23,8.0,17.0,86,0.00,,---,0.00,VWS V14.01,2013-10-12 21:18:00,
2013-10-12 16:20:00,76.0,71.8,29.91,North,359,6.0,8.0,87,0.00,,,0.00,Wunderground v.1.15,2013-10-12 21:20:00,
2013-10-12 16:23:00,75.8,72.0,29.91,NE,54,3.0,11.0,88,0.00,,---,0.00,VWS V14.01,2013-10-12 21:23:00,
2013-10-12 16:25:00,75.6,71.8,29.91,ENE,67,6.0,8.0,88,0.00,,,0.00,Wunderground v.1.15,2013-10-12 21:25:00,
2013-10-12 16:29:00,75.3,71.5,29.92,ENE,61,3.0,11.0,88,0.00,,---,0.00,VWS V14.01,2013-10-12 21:29:00,
2013-10-12 16:30:00,75.3,71.5,29.92,NE,56,5.0,5.0,88,0.00,,,0.00,Wunderground v.1.15,2013-10-12 21:30:00,
2013-10-12 16:34:00,75.1,71.3,29.93,East,99,5.0,8.0,88,0.00,,---,0.00,VWS V14.01,2013-10-12 21:34:00,
2013-10-12 16:35:00,75.1,71.3,29.92,East,99,4.0,5.0,88,0.00,,,0.00,Wunderground v.1.15,2013-10-12 21:35:00,
2013-10-12 16:39:00,74.6,71.2,29.92,NE,36,2.0,11.0,89,0.00,,---,0.00,VWS V14.01,2013-10-12 21:39:00,
2013-10-12 16:40:00,74.6,71.1,29.93,NE,36,5.0,5.0,89,0.00,,,0.00,Wunderground v.1.15,2013-10-12 21:40:00,
2013-10-12 16:44:00,74.4,70.9,29.93,NNE,25,3.0,10.0,89,0.00,,---,0.00,VWS V14.01,2013-10-12 21:44:00,
2013-10-12 16:49:00,74.2,71.1,29.93,ENE,67,3.0,10.0,90,0.00,,---,0.00,VWS V14.01,2013-10-12 21:49:00,
2013-10-12 16:50:00,74.0,70.9,29.93,NNE,33,5.0,5.0,90,0.00,,,0.00,Wunderground v.1.15,2013-10-12 21:50:00,
2013-10-12 16:54:00,74.0,70.9,29.93,ENE,73,5.0,8.0,90,0.00,,---,0.00,VWS V14.01,2013-10-12 21:54:00,
2013-10-12 16:55:00,73.9,70.8,29.93,ENE,68,4.0,5.0,90,0.00,,,0.00,Wunderground v.1.15,2013-10-12 21:55:00,
2013-10-12 16:59:00,73.7,70.9,29.93,ENE,73,3.0,8.0,91,0.00,,---,0.00,VWS V14.01,2013-10-12 21:59:00,
2013-10-12 17:00:00,73.7,70.9,29.93,ENE,71,4.0,4.0,91,0.00,,,0.00,Wunderground v.1.15,2013-10-12 22:00:00,
2013-10-12 17:04:00,73.7,70.9,29.93,NE,46,2.0,7.0,91,0.00,,---,0.00,VWS V14.01,2013-10-12 22:04:00,
2013-10-12 17:05:00,73.5,70.7,29.94,NE,46,4.0,4.0,91,0.00,,,0.00,Wunderground v.1.15,2013-10-12 22:05:00,
2013-10-12 17:09:00,73.3,70.5,29.94,ENE,74,5.0,8.0,91,0.00,,---,0.00,VWS V14.01,2013-10-12 22:09:00,
2013-10-12 17:10:00,73.3,70.5,29.94,ENE,78,4.0,5.0,91,0.00,,,0.00,Wunderground v.1.15,2013-10-12 22:10:00,
2013-10-12 17:14:00,73.2,70.7,29.94,NE,42,3.0,5.0,92,0.00,,---,0.00,VWS V14.01,2013-10-12 22:14:00,
2013-10-12 17:15:00,73.2,70.7,29.94,East,88,4.0,5.0,92,0.00,,,0.00,Wunderground v.1.15,2013-10-12 22:15:00,
2013-10-12 17:20:00,73.0,70.5,29.93,ENE,75,2.0,5.0,92,0.00,,---,0.00,VWS V14.01,2013-10-12 22:20:00,
2013-10-12 17:25:00,72.8,70.3,29.93,ENE,63,1.0,5.0,92,0.00,,---,0.00,VWS V14.01,2013-10-12 22:25:00,
2013-10-12 17:30:00,72.8,70.3,29.94,ENE,63,2.0,2.0,92,0.00,,---,0.00,VWS V14.01,2013-10-12 22:30:00,
2013-10-12 17:35:00,72.7,70.2,29.92,NE,43,3.0,5.0,92,0.00,,---,0.00,VWS V14.01,2013-10-12 22:35:00,
2013-10-12 17:40:00,72.5,70.0,29.92,ENE,70,3.0,3.0,92,0.00,,,0.00,Wunderground v.1.15,2013-10-12 22:40:00,
2013-10-12 17:45:00,72.5,70.0,29.92,NE,54,3.0,3.0,92,0.00,,,0.00,Wunderground v.1.15,2013-10-12 22:45:00,
2013-10-12 17:50:00,72.3,69.8,29.92,NNE,29,4.0,4.0,92,0.00,,,0.00,Wunderground v.1.15,2013-10-12 22:50:00,
2013-10-12 17:55:00,72.3,69.8,29.93,ENE,57,3.0,4.0,92,0.00,,,0.00,Wunderground v.1.15,2013-10-12 22:55:00,
2013-10-12 18:00:00,72.3,70.2,29.93,ENE,57,1.0,1.0,93,0.00,,,0.00,Wunderground v.1.15,2013-10-12 23:00:00,
2013-10-12 18:01:00,72.3,70.2,29.94,ENE,57,0.0,0.0,93,0.00,,---,0.00,VWS V14.01,2013-10-12 23:01:00,
2013-10-12 18:05:00,72.1,70.0,29.95,ENE,59,0.0,2.0,93,0.00,,,0.00,Wunderground v.1.15,2013-10-12 23:05:00,
2013-10-12 18:06:00,72.1,70.0,29.95,ENE,59,0.0,2.0,93,0.00,,---,0.00,VWS V14.01,2013-10-12 23:06:00,
2013-10-12 18:11:00,72.1,70.0,29.95,ENE,59,0.0,0.0,93,0.00,,---,0.00,VWS V14.01,2013-10-12 23:11:00,
2013-10-12 18:15:00,72.1,70.0,29.95,ENE,59,0.0,0.0,93,0.00,,,0.00,Wunderground v.1.15,2013-10-12 23:15:00,
2013-10-12 18:16:00,72.1,70.0,29.96,ENE,59,0.0,2.0,93,0.00,,---,0.00,VWS V14.01,2013-10-12 23:16:00,
2013-10-12 18:20:00,72.1,70.0,29.97,ENE,59,0.0,0.0,93,0.00,,,0.00,Wunderground v.1.15,2013-10-12 23:20:00,
2013-10-12 18:21:00,72.1,70.0,29.97,ENE,59,0.0,0.0,93,0.00,,---,0.00,VWS V14.01,2013-10-12 23:21:00,
2013-10-12 18:25:00,72.1,70.0,29.96,ENE,57,0.0,3.0,93,0.00,,,0.00,Wunderground v.1.15,2013-10-12 23:25:00,
2013-10-12 18:26:00,72.1,70.3,29.96,ENE,59,1.0,3.0,94,0.00,,---,0.00,VWS V14.01,2013-10-12 23:26:00,
2013-10-12 18:30:00,72.1,70.3,29.95,NE,56,1.0,1.0,94,0.00,,,0.01,Wunderground v.1.15,2013-10-12 23:30:00,
2013-10-12 18:32:00,72.1,70.3,29.95,SE,135,2.0,3.0,94,0.01,,---,0.01,VWS V14.01,2013-10-12 23:32:00,
2013-10-12 18:35:00,72.1,70.3,29.97,SW,215,1.0,1.0,94,0.00,,,0.01,Wunderground v.1.15,2013-10-12 23:35:00,
2013-10-12 18:37:00,72.1,70.3,29.98,SW,236,3.0,5.0,94,0.01,,---,0.01,VWS V14.01,2013-10-12 23:37:00,
2013-10-12 18:40:00,72.3,70.5,29.99,SW,236,2.0,2.0,94,0.00,,,0.01,Wunderground v.1.15,2013-10-12 23:40:00,
2013-10-12 18:42:00,72.3,70.5,29.99,SW,236,0.0,2.0,94,0.01,,---,0.01,VWS V14.01,2013-10-12 23:42:00,
2013-10-12 18:45:00,72.3,70.5,29.99,SW,236,2.0,2.0,94,0.00,,,0.01,Wunderground v.1.15,2013-10-12 23:45:00,
2013-10-12 18:48:00,72.3,70.5,29.99,SW,217,0.0,3.0,94,0.01,,---,0.01,VWS V14.01,2013-10-12 23:48:00,
2013-10-12 18:50:00,72.3,70.5,29.98,SW,215,1.0,3.0,94,0.00,,,0.01,Wunderground v.1.15,2013-10-12 23:50:00,
2013-10-12 18:53:00,72.1,70.6,29.98,SW,215,0.0,3.0,95,0.01,,---,0.01,VWS V14.01,2013-10-12 23:53:00,
2013-10-12 18:55:00,72.1,70.6,29.98,SW,215,1.0,3.0,95,0.00,,,0.01,Wunderground v.1.15,2013-10-12 23:55:00,
2013-10-12 18:58:00,72.1,70.6,29.98,SSE,164,0.0,3.0,95,0.01,,---,0.01,VWS V14.01,2013-10-12 23:58:00,
2013-10-12 19:00:00,72.1,70.6,29.98,SSE,164,1.0,1.0,95,0.00,,,0.01,Wunderground v.1.15,2013-10-13 00:00:00,
2013-10-12 19:03:00,72.0,70.5,29.99,SSE,164,0.0,0.0,95,0.01,,---,0.01,VWS V14.01,2013-10-13 00:03:00,
2013-10-12 19:05:00,72.0,70.5,29.98,SSE,164,0.0,1.0,95,0.00,,,0.01,Wunderground v.1.15,2013-10-13 00:05:00,
2013-10-12 19:08:00,72.0,70.5,29.98,SSE,163,2.0,2.0,95,0.01,,---,0.01,VWS V14.01,2013-10-13 00:08:00,
2013-10-12 19:10:00,72.0,70.5,29.97,ENE,74,0.0,2.0,95,0.00,,,0.01,Wunderground v.1.15,2013-10-13 00:10:00,
2013-10-12 19:13:00,71.8,70.3,29.97,ENE,66,0.0,2.0,95,0.01,,---,0.01,VWS V14.01,2013-10-13 00:13:00,
2013-10-12 19:15:00,71.8,70.3,29.97,ENE,66,1.0,2.0,95,0.00,,,0.01,Wunderground v.1.15,2013-10-13 00:15:00,
2013-10-12 19:19:00,71.8,70.3,29.98,ENE,66,0.0,2.0,95,0.02,,---,0.02,VWS V14.01,2013-10-13 00:19:00,
2013-10-12 19:20:00,71.8,70.3,29.98,ENE,66,0.0,0.0,95,0.00,,,0.02,Wunderground v.1.15,2013-10-13 00:20:00,
2013-10-12 19:24:00,71.8,70.3,29.97,ENE,64,1.0,2.0,95,0.02,,---,0.02,VWS V14.01,2013-10-13 00:24:00,
2013-10-12 19:25:00,71.6,70.1,29.98,ENE,64,0.0,2.0,95,0.00,,,0.02,Wunderground v.1.15,2013-10-13 00:25:00,
2013-10-12 19:30:00,71.6,70.1,29.98,ENE,64,0.0,0.0,95,0.06,,,0.03,Wunderground v.1.15,2013-10-13 00:30:00,
2013-10-12 19:35:00,71.6,70.1,29.99,ENE,64,1.0,1.0,95,0.06,,,0.03,Wunderground v.1.15,2013-10-13 00:35:00,
2013-10-12 19:40:00,71.5,70.0,29.99,ENE,64,0.0,0.0,95,0.03,,---,0.04,VWS V14.01,2013-10-13 00:40:00,
2013-10-12 19:45:00,71.5,70.0,29.99,ENE,64,0.0,0.0,95,0.06,,,0.04,Wunderground v.1.15,2013-10-13 00:45:00,
2013-10-12 19:50:00,71.3,69.8,29.99,NNE,32,1.0,1.0,95,0.03,,---,0.04,VWS V14.01,2013-10-13 00:50:00,
2013-10-12 19:55:00,71.3,69.8,29.99,NNE,22,2.0,2.0,95,0.00,,,0.04,Wunderground v.1.15,2013-10-13 00:55:00,
2013-10-12 20:00:00,71.1,69.9,29.98,NNE,20,1.0,1.0,96,0.00,,,0.04,Wunderground v.1.15,2013-10-13 01:00:00,
2013-10-12 20:05:00,71.1,69.9,29.99,NNE,20,0.0,1.0,96,0.00,,,0.04,Wunderground v.1.15,2013-10-13 01:05:00,
2013-10-12 20:06:00,71.1,69.9,29.99,NNE,20,0.0,1.0,96,0.03,,---,0.04,VWS V14.01,2013-10-13 01:06:00,
2013-10-12 20:10:00,70.9,69.7,29.99,NNE,20,0.0,0.0,96,0.00,,,0.04,Wunderground v.1.15,2013-10-13 01:10:00,
2013-10-12 20:11:00,70.9,69.7,29.99,NNE,20,0.0,0.0,96,0.03,,---,0.04,VWS V14.01,2013-10-13 01:11:00,
2013-10-12 20:16:00,70.9,69.7,29.99,NNE,20,0.0,0.0,96,0.03,,---,0.04,VWS V14.01,2013-10-13 01:16:00,
2013-10-12 20:20:00,70.9,69.7,29.99,NNE,20,1.0,1.0,96,0.00,,,0.04,Wunderground v.1.15,2013-10-13 01:20:00,
2013-10-12 20:21:00,70.9,69.7,29.99,NNE,20,0.0,0.0,96,0.02,,---,0.04,VWS V14.01,2013-10-13 01:21:00,
2013-10-12 20:25:00,70.8,69.6,29.99,NNE,20,1.0,1.0,96,0.00,,,0.04,Wunderground v.1.15,2013-10-13 01:25:00,
2013-10-12 20:26:00,70.8,69.6,29.99,NNE,20,0.0,3.0,96,0.02,,---,0.04,VWS V14.01,2013-10-13 01:26:00,
2013-10-12 20:30:00,70.8,69.6,29.98,NNE,20,0.0,0.0,96,0.00,,,0.04,Wunderground v.1.15,2013-10-13 01:30:00,
2013-10-12 20:31:00,70.8,69.6,29.99,NNE,20,0.0,0.0,96,0.01,,---,0.04,VWS V14.01,2013-10-13 01:31:00,
2013-10-12 20:35:00,70.6,69.4,29.99,NNE,20,0.0,0.0,96,0.00,,,0.04,Wunderground v.1.15,2013-10-13 01:35:00,
2013-10-12 20:36:00,70.6,69.4,29.99,NNE,20,0.0,0.0,96,0.01,,---,0.04,VWS V14.01,2013-10-13 01:36:00,
2013-10-12 20:40:00,70.6,69.4,30.00,NNE,20,0.0,0.0,96,0.00,,,0.04,Wunderground v.1.15,2013-10-13 01:40:00,
2013-10-12 20:42:00,70.6,69.4,30.00,NNE,20,1.0,1.0,96,0.00,,---,0.04,VWS V14.01,2013-10-13 01:42:00,
2013-10-12 20:45:00,70.6,69.4,30.00,NNE,20,0.0,0.0,96,0.00,,,0.04,Wunderground v.1.15,2013-10-13 01:45:00,
2013-10-12 20:47:00,70.4,69.2,30.00,NNE,20,1.0,1.0,96,0.00,,---,0.04,VWS V14.01,2013-10-13 01:47:00,
2013-10-12 20:50:00,70.4,69.2,30.00,NNE,20,0.0,0.0,96,0.00,,,0.04,Wunderground v.1.15,2013-10-13 01:50:00,
2013-10-12 20:52:00,70.4,69.2,30.00,NNE,20,0.0,0.0,96,0.00,,---,0.04,VWS V14.01,2013-10-13 01:52:00,
2013-10-12 20:55:00,70.4,69.2,30.00,NNE,20,0.0,0.0,96,0.00,,,0.04,Wunderground v.1.15,2013-10-13 01:55:00,
2013-10-12 20:57:00,70.4,69.2,30.00,NNE,20,0.0,0.0,96,0.00,,---,0.04,VWS V14.01,2013-10-13 01:57:00,
2013-10-12 21:00:00,70.3,69.1,30.00,NNE,20,0.0,0.0,96,0.00,,,0.04,Wunderground v.1.15,2013-10-13 02:00:00,
2013-10-12 21:02:00,70.3,69.1,30.00,NNE,20,0.0,0.0,96,0.00,,---,0.04,VWS V14.01,2013-10-13 02:02:00,
2013-10-12 21:05:00,70.3,69.1,30.00,NNE,20,0.0,0.0,96,0.00,,,0.04,Wunderground v.1.15,2013-10-13 02:05:00,
2013-10-12 21:07:00,70.3,69.1,30.00,NNE,20,0.0,0.0,96,0.00,,---,0.04,VWS V14.01,2013-10-13 02:07:00,
2013-10-12 21:10:00,70.3,69.1,30.01,NNE,20,0.0,0.0,96,0.00,,,0.04,Wunderground v.1.15,2013-10-13 02:10:00,
2013-10-12 21:12:00,70.3,69.1,30.01,NNE,20,2.0,2.0,96,0.00,,---,0.04,VWS V14.01,2013-10-13 02:12:00,
2013-10-12 21:15:00,70.3,69.1,30.01,NNE,20,0.0,0.0,96,0.00,,,0.04,Wunderground v.1.15,2013-10-13 02:15:00,
2013-10-12 21:18:00,70.3,69.1,30.01,NNE,20,0.0,2.0,96,0.00,,---,0.04,VWS V14.01,2013-10-13 02:18:00,
2013-10-12 21:20:00,70.3,69.1,30.01,NNE,20,0.0,0.0,96,0.00,,,0.04,Wunderground v.1.15,2013-10-13 02:20:00,
2013-10-12 21:23:00,70.3,69.1,30.01,NNE,20,0.0,0.0,96,0.00,,---,0.04,VWS V14.01,2013-10-13 02:23:00,
2013-10-12 21:25:00,70.3,69.1,30.01,NNE,20,0.0,0.0,96,0.00,,,0.04,Wunderground v.1.15,2013-10-13 02:25:00,
2013-10-12 21:28:00,70.3,69.1,30.01,NNE,20,0.0,0.0,96,0.00,,---,0.04,VWS V14.01,2013-10-13 02:28:00,
2013-10-12 21:30:00,70.3,69.1,30.01,NNE,20,0.0,0.0,96,0.00,,,0.04,Wunderground v.1.15,2013-10-13 02:30:00,
2013-10-12 21:33:00,70.3,69.1,30.01,NNE,20,0.0,0.0,96,0.00,,---,0.04,VWS V14.01,2013-10-13 02:33:00,
2013-10-12 21:35:00,70.3,69.1,30.02,NNE,20,0.0,1.0,96,0.00,,,0.04,Wunderground v.1.15,2013-10-13 02:35:00,
2013-10-12 21:38:00,70.1,68.9,30.02,NNE,20,0.0,1.0,96,0.00,,---,0.04,VWS V14.01,2013-10-13 02:38:00,
2013-10-12 21:40:00,70.1,68.9,30.02,NNE,20,0.0,0.0,96,0.00,,,0.04,Wunderground v.1.15,2013-10-13 02:40:00,
2013-10-12 21:43:00,70.1,68.9,30.02,NNE,20,1.0,1.0,96,0.00,,---,0.04,VWS V14.01,2013-10-13 02:43:00,
2013-10-12 21:48:00,70.1,68.9,30.02,NNE,20,0.0,2.0,96,0.00,,---,0.04,VWS V14.01,2013-10-13 02:48:00,
2013-10-12 21:50:00,70.1,68.9,30.02,NNE,20,0.0,0.0,96,0.00,,,0.04,Wunderground v.1.15,2013-10-13 02:50:00,
2013-10-12 21:53:00,70.1,68.9,30.02,NNE,20,1.0,1.0,96,0.00,,---,0.04,VWS V14.01,2013-10-13 02:53:00,
2013-10-12 21:55:00,70.1,68.9,30.02,NNE,20,0.0,1.0,96,0.00,,,0.04,Wunderground v.1.15,2013-10-13 02:55:00,
2013-10-12 21:59:00,69.9,68.7,30.02,NNE,20,1.0,2.0,96,0.00,,---,0.04,VWS V14.01,2013-10-13 02:59:00,
2013-10-12 22:00:00,69.9,68.7,30.02,NNE,20,0.0,1.0,96,0.00,,,0.04,Wunderground v.1.15,2013-10-13 03:00:00,
2013-10-12 22:04:00,69.9,68.7,30.02,NNE,20,0.0,1.0,96,0.00,,---,0.04,VWS V14.01,2013-10-13 03:04:00,
2013-10-12 22:05:00,69.9,68.7,30.02,NNE,19,1.0,1.0,96,0.00,,,0.04,Wunderground v.1.15,2013-10-13 03:05:00,
2013-10-12 22:09:00,69.9,68.7,30.02,NNE,19,0.0,3.0,96,0.00,,---,0.04,VWS V14.01,2013-10-13 03:09:00,
2013-10-12 22:10:00,69.9,68.7,30.02,NNE,19,1.0,1.0,96,0.00,,,0.04,Wunderground v.1.15,2013-10-13 03:10:00,
2013-10-12 22:14:00,69.8,68.6,30.02,NNE,19,0.0,1.0,96,0.00,,---,0.04,VWS V14.01,2013-10-13 03:14:00,
2013-10-12 22:15:00,69.8,68.6,30.02,NNE,19,0.0,1.0,96,0.00,,,0.04,Wunderground v.1.15,2013-10-13 03:15:00,
2013-10-12 22:19:00,69.8,68.6,30.02,NNE,19,1.0,1.0,96,0.00,,---,0.04,VWS V14.01,2013-10-13 03:19:00,
2013-10-12 22:20:00,69.8,68.6,30.02,NNE,19,0.0,0.0,96,0.00,,,0.04,Wunderground v.1.15,2013-10-13 03:20:00,
2013-10-12 22:25:00,69.6,68.4,30.02,NNE,19,0.0,1.0,96,0.00,,---,0.04,VWS V14.01,2013-10-13 03:25:00,
2013-10-12 22:30:00,69.6,68.4,30.02,NNE,19,0.0,0.0,96,0.00,,---,0.04,VWS V14.01,2013-10-13 03:30:00,
2013-10-12 22:35:00,69.6,68.4,30.02,NNE,19,0.0,0.0,96,0.01,,---,0.05,VWS V14.01,2013-10-13 03:35:00,
2013-10-12 22:40:00,69.4,68.2,30.03,NNE,19,0.0,0.0,96,0.00,,,0.05,Wunderground v.1.15,2013-10-13 03:40:00,
2013-10-12 22:45:00,69.4,68.2,30.03,NNE,19,0.0,0.0,96,0.00,,,0.05,Wunderground v.1.15,2013-10-13 03:45:00,
2013-10-12 22:50:00,69.4,68.2,30.03,NNE,19,0.0,0.0,96,0.00,,,0.05,Wunderground v.1.15,2013-10-13 03:50:00,
2013-10-12 22:55:00,69.3,68.1,30.03,NNE,19,0.0,0.0,96,0.00,,,0.05,Wunderground v.1.15,2013-10-13 03:55:00,
2013-10-12 22:56:00,69.3,68.1,30.03,NNE,19,0.0,1.0,96,0.01,,---,0.05,VWS V14.01,2013-10-13 03:56:00,
2013-10-12 23:00:00,69.3,68.1,30.03,NNE,19,0.0,1.0,96,0.00,,,0.05,Wunderground v.1.15,2013-10-13 04:00:00,
2013-10-12 23:01:00,69.3,68.1,30.03,NNE,19,1.0,1.0,96,0.01,,---,0.05,VWS V14.01,2013-10-13 04:01:00,
2013-10-12 23:05:00,69.3,68.1,30.03,NNE,19,0.0,1.0,96,0.00,,,0.05,Wunderground v.1.15,2013-10-13 04:05:00,
2013-10-12 23:06:00,69.3,68.1,30.03,NNE,19,1.0,1.0,96,0.01,,---,0.05,VWS V14.01,2013-10-13 04:06:00,
2013-10-12 23:10:00,69.1,67.9,30.03,NNE,19,0.0,0.0,96,0.00,,,0.05,Wunderground v.1.15,2013-10-13 04:10:00,
2013-10-12 23:12:00,68.9,67.7,30.03,NNE,19,0.0,0.0,96,0.01,,---,0.05,VWS V14.01,2013-10-13 04:12:00,
2013-10-12 23:15:00,68.9,67.7,30.03,NNE,19,0.0,0.0,96,0.00,,,0.05,Wunderground v.1.15,2013-10-13 04:15:00,
2013-10-12 23:17:00,68.8,67.6,30.03,NNE,19,0.0,0.0,96,0.01,,---,0.05,VWS V14.01,2013-10-13 04:17:00,
2013-10-12 23:20:00,68.8,67.6,30.03,NNE,19,0.0,0.0,96,0.00,,,0.05,Wunderground v.1.15,2013-10-13 04:20:00,
2013-10-12 23:22:00,68.6,67.4,30.03,NNE,19,0.0,0.0,96,0.01,,---,0.05,VWS V14.01,2013-10-13 04:22:00,
2013-10-12 23:25:00,68.6,67.4,30.03,NNE,19,0.0,0.0,96,0.00,,,0.05,Wunderground v.1.15,2013-10-13 04:25:00,
2013-10-12 23:27:00,68.6,67.4,30.03,NNE,19,0.0,0.0,96,0.01,,---,0.05,VWS V14.01,2013-10-13 04:27:00,
2013-10-12 23:30:00,68.6,67.4,30.03,NNE,19,0.0,0.0,96,0.00,,,0.05,Wunderground v.1.15,2013-10-13 04:30:00,
2013-10-12 23:32:00,68.6,67.4,30.03,NNE,19,0.0,0.0,96,0.01,,---,0.05,VWS V14.01,2013-10-13 04:32:00,
2013-10-12 23:35:00,68.4,67.2,30.03,NNE,19,0.0,0.0,96,0.00,,,0.05,Wunderground v.1.15,2013-10-13 04:35:00,
2013-10-12 23:38:00,68.4,67.2,30.03,NNE,19,0.0,0.0,96,0.01,,---,0.05,VWS V14.01,2013-10-13 04:38:00,
2013-10-12 23:40:00,68.4,67.2,30.03,NNE,19,0.0,0.0,96,0.00,,,0.05,Wunderground v.1.15,2013-10-13 04:40:00,
2013-10-12 23:43:00,68.4,67.2,30.03,NNE,19,0.0,0.0,96,0.00,,---,0.05,VWS V14.01,2013-10-13 04:43:00,
2013-10-12 23:45:00,68.3,67.1,30.03,NNE,19,0.0,0.0,96,0.00,,,0.05,Wunderground v.1.15,2013-10-13 04:45:00,
2013-10-12 23:48:00,68.3,67.1,30.03,NNE,19,0.0,0.0,96,0.00,,---,0.05,VWS V14.01,2013-10-13 04:48:00,
2013-10-12 23:50:00,68.3,67.1,30.03,NNE,19,0.0,0.0,96,0.00,,,0.05,Wunderground v.1.15,2013-10-13 04:50:00,
2013-10-12 23:53:00,68.3,67.1,30.03,NNE,19,0.0,0.0,96,0.00,,---,0.05,VWS V14.01,2013-10-13 04:53:00,
2013-10-12 23:55:00,68.3,67.1,30.03,NNE,19,0.0,0.0,96,0.00,,,0.05,Wunderground v.1.15,2013-10-13 04:55:00,
2013-10-12 23:58:00,68.4,67.5,30.03,NNE,19,0.0,0.0,97,0.00,,---,0.05,VWS V14.01,2013-10-13 04:58:00,